| time (UTC) | temp C | wind direction | speed KPH | gust KPH | rain 1hr cm | rain 24hr cm | rain mn cm | humidity % | barometer mb |
| 20260506103037 | 13 | 65 | 11.3 | 20.9 | 0.00 | 0.00 | 0.00 | 79 | 1008.1 |
| 20260506101534 | 13 | 63 | 12.9 | 20.9 | 0.00 | 0.00 | 0.00 | 79 | 1008.3 |
| 20260506100031 | 14 | 45 | 8.0 | 19.3 | 0.00 | 0.00 | 0.00 | 79 | 1008.1 |
| 20260506094528 | 15 | 36 | 4.8 | 14.5 | 0.00 | 0.00 | 0.00 | 79 | 1008.0 |
| 20260506093025 | 15 | 62 | 8.0 | 14.5 | 0.00 | 0.00 | 0.00 | 79 | 1007.7 |
| 20260506091523 | 15 | 57 | 8.0 | 16.1 | 0.00 | 0.00 | 0.00 | 79 | 1007.4 |
| 20260506090023 | 15 | 32 | 6.4 | 14.5 | 0.00 | 0.00 | 0.00 | 78 | 1006.9 |
| 20260506084519 | 16 | 25 | 9.7 | 16.1 | 0.00 | 0.00 | 0.00 | 79 | 1007.1 |
| 20260506083017 | 16 | 45 | 3.2 | 11.3 | 0.00 | 0.00 | 0.00 | 79 | 1007.5 |
| 20260506081510 | 16 | 55 | 6.4 | 14.5 | 0.00 | 0.00 | 0.00 | 78 | 1007.2 |
| 20260506073005 | 17 | 69 | 6.4 | 16.1 | 0.00 | 0.00 | 0.00 | 76 | 1007.0 |
| 20260506071503 | 18 | 73 | 4.8 | 14.5 | 0.00 | 0.00 | 0.00 | 76 | 1006.9 |
| 20260506061552 | 19 | 61 | 4.8 | 9.7 | 0.00 | 0.00 | 0.00 | 69 | 1006.5 |
| 20260506050104 | 20 | 348 | 0.0 | 3.2 | 0.00 | 0.00 | 0.00 | 62 | 1006.3 |
| 20260506044544 | 20 | 348 | 0.0 | 3.2 | 0.00 | 0.00 | 0.00 | 59 | 1006.1 |
| 20260506043040 | 20 | 348 | 1.6 | 6.4 | 0.00 | 0.00 | 0.00 | 59 | 1006.0 |
| 20260506041555 | 21 | 355 | 0.0 | 3.2 | 0.00 | 0.00 | 0.00 | 57 | 1006.0 |
| 20260506040039 | 21 | 355 | 0.0 | 3.2 | 0.00 | 0.00 | 0.00 | 53 | 1005.8 |
| 20260506034549 | 22 | 355 | 1.6 | 6.4 | 0.00 | 0.00 | 0.00 | 51 | 1005.8 |
| 20260506033039 | 23 | 342 | 1.6 | 4.8 | 0.00 | 0.00 | 0.00 | 47 | 1005.8 |
| 20260506031536 | 24 | 342 | 0.0 | 1.6 | 0.00 | 0.00 | 0.00 | 41 | 1005.8 |
| 20260506030038 | 25 | 342 | 0.0 | 6.4 | 0.00 | 0.00 | 0.00 | 38 | 1005.4 |
| 20260506024536 | 23 | 314 | 1.6 | 4.8 | 0.00 | 0.00 | 0.00 | 44 | 1005.1 |
| 20260506023034 | 24 | 313 | 0.0 | 3.2 | 0.00 | 0.00 | 0.00 | 44 | 1005.1 |
| 20260506021534 | 25 | 313 | 1.6 | 3.2 | 0.00 | 0.00 | 0.00 | 39 | 1005.0 |
| 20260506020034 | 26 | 313 | 0.0 | 1.6 | 0.00 | 0.00 | 0.00 | 33 | 1004.9 |
| 20260506014534 | 27 | 313 | 1.6 | 8.0 | 0.00 | 0.00 | 0.00 | 31 | 1004.6 |
| 20260506013047 | 28 | 301 | 8.0 | 16.1 | 0.00 | 0.00 | 0.00 | 31 | 1004.4 |
| 20260506011540 | 27 | 298 | 4.8 | 8.0 | 0.00 | 0.00 | 0.00 | 35 | 1004.0 |
| 20260506010034 | 28 | 302 | 3.2 | 9.7 | 0.00 | 0.00 | 0.00 | 40 | 1004.1 |
| 20260506004531 | 30 | 266 | 3.2 | 9.7 | 0.00 | 0.00 | 0.00 | 34 | 1003.8 |
| 20260506003030 | 30 | 265 | 1.6 | 3.2 | 0.00 | 0.00 | 0.00 | 34 | 1003.6 |
| 20260506001530 | 30 | 266 | 3.2 | 11.3 | 0.00 | 0.00 | 0.00 | 33 | 1003.6 |
| 20260506000029 | 30 | 279 | 4.8 | 8.0 | 0.00 | 0.00 | 0.00 | 30 | 1003.5 |
| 20260505234531 | 31 | 259 | 4.8 | 11.3 | 0.00 | 0.00 | 0.00 | 27 | 1003.3 |
| 20260505233029 | 31 | 250 | 6.4 | 14.5 | 0.00 | 0.00 | 0.00 | 28 | 1003.4 |
| 20260505231528 | 31 | 275 | 8.0 | 14.5 | 0.00 | 0.00 | 0.00 | 26 | 1003.5 |
| 20260505230026 | 31 | 300 | 4.8 | 16.1 | 0.00 | 0.00 | 0.00 | 29 | 1003.5 |
| 20260505224524 | 31 | 291 | 4.8 | 14.5 | 0.00 | 0.00 | 0.00 | 28 | 1003.6 |
| 20260505223035 | 31 | 265 | 4.8 | 11.3 | 0.00 | 0.00 | 0.00 | 29 | 1003.5 |
| 20260505221525 | 31 | 288 | 6.4 | 12.9 | 0.00 | 0.00 | 0.00 | 29 | 1003.6 |
| 20260505220039 | 32 | 287 | 6.4 | 16.1 | 0.00 | 0.00 | 0.00 | 28 | 1003.6 |
| 20260505214528 | 32 | 263 | 9.7 | 20.9 | 0.00 | 0.00 | 0.00 | 25 | 1003.6 |
| 20260505213024 | 32 | 281 | 8.0 | 17.7 | 0.00 | 0.00 | 0.00 | 28 | 1003.7 |
| 20260505211521 | 32 | 309 | 8.0 | 17.7 | 0.00 | 0.00 | 0.00 | 30 | 1003.7 |
| 20260505210021 | 32 | 265 | 11.3 | 19.3 | 0.00 | 0.00 | 0.00 | 28 | 1003.9 |
| 20260505204518 | 32 | 279 | 12.9 | 20.9 | 0.00 | 0.00 | 0.00 | 27 | 1004.1 |
| 20260505203017 | 31 | 269 | 6.4 | 16.1 | 0.00 | 0.00 | 0.00 | 30 | 1004.2 |
| 20260505201516 | 31 | 252 | 6.4 | 16.1 | 0.00 | 0.00 | 0.00 | 28 | 1004.2 |
| 20260505200022 | 32 | 268 | 8.0 | 16.1 | 0.00 | 0.00 | 0.00 | 32 | 1004.4 |
| 20260505194514 | 31 | 297 | 8.0 | 17.7 | 0.00 | 0.00 | 0.00 | 30 | 1004.6 |
| 20260505193015 | 31 | 261 | 11.3 | 20.9 | 0.00 | 0.00 | 0.00 | 30 | 1004.5 |
| 20260505191523 | 31 | 263 | 8.0 | 19.3 | 0.00 | 0.00 | 0.00 | 33 | 1004.6 |
| 20260505190012 | 31 | 309 | 8.0 | 20.9 | 0.00 | 0.00 | 0.00 | 38 | 1004.9 |
| 20260505184506 | 30 | 270 | 9.7 | 16.1 | 0.00 | 0.00 | 0.00 | 37 | 1005.0 |
| 20260505183004 | 30 | 241 | 4.8 | 16.1 | 0.00 | 0.00 | 0.00 | 43 | 1005.0 |
| 20260505181600 | 30 | 293 | 6.4 | 16.1 | 0.00 | 0.00 | 0.00 | 49 | 1005.4 |
| 20260505180057 | 29 | 254 | 6.4 | 17.7 | 0.00 | 0.00 | 0.00 | 49 | 1005.5 |
| 20260505174602 | 28 | 279 | 6.4 | 14.5 | 0.00 | 0.00 | 0.00 | 55 | 1005.5 |
| 20260505173054 | 28 | 241 | 11.3 | 22.5 | 0.00 | 0.00 | 0.00 | 56 | 1005.7 |
| 20260505171547 | 27 | 215 | 11.3 | 16.1 | 0.00 | 0.00 | 0.00 | 59 | 1005.7 |
| 20260505170043 | 27 | 222 | 14.5 | 24.1 | 0.00 | 0.00 | 0.00 | 60 | 1005.7 |
| 20260505164542 | 26 | 221 | 9.7 | 22.5 | 0.00 | 0.00 | 0.00 | 64 | 1005.8 |
| 20260505163037 | 26 | 220 | 8.0 | 19.3 | 0.00 | 0.00 | 0.00 | 71 | 1005.8 |
| 20260505161542 | 25 | 252 | 11.3 | 19.3 | 0.00 | 0.00 | 0.00 | 71 | 1005.7 |
| 20260505153025 | 23 | 207 | 12.9 | 20.9 | 0.00 | 0.00 | 0.00 | 79 | 1005.6 |
| 20260505151523 | 23 | 200 | 9.7 | 19.3 | 0.00 | 0.00 | 0.00 | 80 | 1005.6 |
| 20260505124516 | 20 | 207 | 12.9 | 24.1 | 0.00 | 0.00 | 0.00 | 88 | 1004.9 |
| 20260505123009 | 19 | 211 | 9.7 | 22.5 | 0.00 | 0.00 | 0.00 | 87 | 1004.9 |
| 20260505121610 | 19 | 215 | 14.5 | 20.9 | 0.00 | 0.00 | 0.00 | 87 | 1004.8 |
| 20260505120007 | 19 | 236 | 12.9 | 24.1 | 0.00 | 0.00 | 0.00 | 87 | 1004.7 |
| 20260505114506 | 19 | 227 | 8.0 | 12.9 | 0.00 | 0.00 | 0.00 | 87 | 1004.5 |
| 20260505113005 | 19 | 212 | 8.0 | 16.1 | 0.00 | 0.00 | 0.00 | 87 | 1004.3 |
| 20260505111505 | 19 | 214 | 8.0 | 19.3 | 0.00 | 0.00 | 0.00 | 86 | 1004.1 |